Simultaneous Nadir Overpasses (SNOs) Predictions

Prediction of SNOs between AURA and NPP Satellite Orbit:

Table of predicted SNOs for the next 14.0 days since TLE Epoch: 10/5/2012
Index Date (AURA) Time (AURA) AURA Lat,Lon Date (NPP) Time (NPP) NPP Lat,Lon Distance(km) Time Diff (sec)
1 10/07/2012 04:30:31 79.72, 10.62 10/07/2012 04:29:52 79.73, 10.69 1.51 39
2 10/07/2012 05:19:53 -79.90, 179.65 10/07/2012 05:20:32 -79.90, 179.61 0.90 39
3 10/09/2012 20:46:57 79.82, 127.22 10/09/2012 20:46:42 79.83, 127.36 2.92 15
4 10/09/2012 21:36:20 -79.96, -63.99 10/09/2012 21:37:23 -79.97, -63.97 0.52 63
5 10/12/2012 12:14:07 -79.58, 73.70 10/12/2012 12:12:59 -79.58, 73.57 2.70 68
6 10/12/2012 13:03:26 79.84,-116.77 10/12/2012 13:03:35 79.83,-116.82 1.22 9
7 10/15/2012 04:30:33 -79.71,-169.50 10/15/2012 04:29:47 -79.71,-169.48 0.49 46
8 10/15/2012 05:19:53 79.92, -0.23 10/15/2012 05:20:24 79.93, -0.13 2.02 31
9 10/17/2012 20:47:04 -79.72, -53.55 10/17/2012 20:46:40 -79.72, -53.64 1.87 24




NCC Satellite Simultaneous Nadir Overpasses (SNOs) Prediction Service
